SCP
0 0 0 0 0 0 0 0 0 0 0 0 0 0 0 0 0 0 0 0 1 1 1 1 1 1 1 1 1 1 1 1 1 1 1 1 1 1 1 1 1 1 1 1
0 0 0 0 0 0 0 0 0 0 0 0 0 0 0 0 0 0 0 1 1 1 1 1 1 1 1 1 1 1 1 1 1 1 1 1 1 1 1 1 1 1 1 1
0 0 0 0 0 0 0 0 0 0 0 0 0 0 0 0 0 1 1 1 1 1 1 1 1 1 1 1 1 1 1 1 1 1 1 1 1 1 1 1 1 1 1 1
0 0 0 0 0 0 0 0 0 0 0 0 0 0 0 1 1 1 1 1 1 1 1 1 1 1 1 1 1 1 1 1 1 1 1 1 1 1 1 1 1 1 1 1
0 0 0 0 0 0 0 0 0 0 0 0 0 0 0 1 1 1 1 1 1 1 1 1 1 1 1 1 1 1 1 1 1 1 1 1 1 1 1 1 1 1 1 1
0 0 0 0 0 0 0 0 0 0 0 0 0 0 1 1 1 1 1 1 1 1 1 2 2 2 2 2 2 1 1 1 1 1 1 2 2 2 2 1 1 1 1 1
0 0 0 0 0 0 0 0 0 0 0 0 0 0 1 1 1 1 1 1 1 1 2 2 2 2 2 2 2 2 1 1 1 2 2 2 2 2 2 2 1 1 1 1
0 0 0 0 0 0 0 0 0 0 0 0 1 1 1 1 1 1 1 1 1 2 2 2 2 2 2 2 2 2 2 1 1 2 2 2 2 2 2 1 1 1 1 1
0 0 0 0 0 0 0 0 0 0 0 0 1 1 1 1 1 1 1 1 2 2 2 2 2 2 2 2 2 2 2 2 2 1 1 2 2 2 1 1 1 1 1 1
0 0 0 0 0 0 1 1 1 1 1 1 1 1 1 1 1 1 1 1 1 2 2 2 2 2 2 2 2 2 2 2 1 1 1 1 1 1 1 1 1 1 1 1
0 0 0 1 1 1 1 1 1 1 1 1 1 1 1 1 1 1 1 1 1 2 2 2 2 2 2 2 2 2 2 2 1 1 1 1 1 1 1 1 1 1 1 1
0 0 1 1 1 0 1 1 1 1 1 1 1 1 1 1 1 1 1 2 2 2 2 2 2 2 2 2 2 2 2 1 1 1 1 1 1 1 1 1 1 0 0 0
1 1 1 0 0 0 1 1 1 1 1 1 1 1 1 1 1 1 1 1 2 2 2 2 2 2 2 2 2 2 2 1 1 1 1 1 1 1 1 1 0 0 0 0
1 1 1 0 0 0 1 1 1 1 1 1 1 1 1 1 1 1 1 1 1 1 2 2 2 1 1 1 2 2 1 1 1 1 1 1 1 1 1 1 1 0 0 0
0 0 0 0 0 0 1 1 1 1 1 1 1 1 1 1 1 1 1 1 1 1 1 1 1 1 1 1 1 1 1 1 1 1 1 1 1 1 1 1 1 1 1 0
0 0 0 0 0 0 1 1 1 1 1 1 1 1 1 1 1 1 1 1 1 1 1 1 1 1 1 1 1 1 1 1 1 1 1 1 1 1 1 1 1 1 1 1
0 0 0 0 0 0 1 1 1 1 1 1 1 1 1 1 1 1 1 1 1 1 1 1 1 1 1 1 1 1 1 1 1 1 1 1 1 1 1 1 1 1 1 1
0 0 0 0 0 0 0 0 1 1 1 1 1 1 1 1 1 1 1 1 1 1 1 1 1 1 1 1 1 1 1 1 1 1 1 1 1 1 1 1 1 1 1 1
0 0 0 0 0 0 0 0 0 0 0 0 1 1 1 1 1 1 1 1 1 1 1 1 1 1 1 1 1 1 1 1 1 1 1 1 1 1 1 1 1 1 1 1
0 0 0 0 0 0 0 0 0 0 0 0 0 1 1 1 1 1 1 1 1 1 1 1 1 1 1 1 1 1 1 1 1 1 1 1 1 1 1 0 0 0 0 0
0 0 0 0 0 0 0 0 0 0 0 0 0 0 0 0 0 1 1 1 1 1 1 1 1 1 1 1 0 1 1 1 1 1 1 1 1 1 1 1 0 0 0 0
0 0 0 0 0 0 0 0 0 0 0 0 0 0 0 0 0 0 1 1 1 0 0 1 1 1 1 0 1 1 1 1 1 1 1 1 1 1 1 0 0 0 0 0
0 0 0 0 0 0 0 0 0 0 0 0 0 0 0 0 0 0 0 0 0 0 0 0 0 0 0 0 1 1 1 1 1 0 0 0 0 0 0 0 0 0 0 0
0 0 0 0 0 0 0 0 0 0 0 0 0 0 0 0 0 0 0 0 0 0 0 0 0 0 0 0 0 0 0 0 0 0 0 0 0 0 0 0 0 0 0 0
0 0 0 0 0 0 0 0 0 0 0 0 0 0 0 0 0 0 0 0 0 0 0 0 0 0 0 0 0 0 0 0 0 0 0 0 0 0 0 0 0 0 0 0
0 0 0 0 0 0 0 0 0 0 0 0 0 0 0 0 0 0 0 0 0 0 0 0 0 0 0 0 0 0 0 0 0 0 0 0 0 0 0 0 0 0 0 0
0 0 0 0 0 0 0 0 0 0 0 0 0 0 0 0 0 0 0 0 0 0 0 0 0 0 0 0 0 0 0 0 0 0 0 0 0 0 0 0 0 0 0 0
Wind_Speed
10 8 10 12 14 15 15 13 11 9 8 4 3 3 3 4 5 6 7 7 7 7 7 8 9 9 9 9 9 9 9 8 8 8 7 6 6 6 6 6 5 5 5 4
11 10 12 12 13 14 14 13 12 9 7 2 3 2 2 4 5 5 6 7 7 7 8 8 9 9 9 9 9 9 9 8 8 8 7 7 7 6 6 6 5 5 5 5
12 12 13 15 14 14 13 10 10 10 6 3 4 3 3 3 4 5 5 6 7 7 7 8 8 9 9 9 9 9 9 8 8 8 8 7 7 7 7 6 6 6 6 5
10 11 17 9 8 10 11 9 8 7 5 4 4 3 3 3 3 4 5 5 6 6 7 7 8 8 8 9 9 9 9 8 8 8 8 7 7 7 7 6 6 6 6 6
10 13 12 8 8 10 11 9 6 6 5 4 4 4 3 1 1 3 4 4 5 6 6 6 7 8 8 9 9 9 9 9 9 8 8 8 7 7 6 6 6 6 6 6
10 13 14 9 8 7 10 10 6 6 5 4 5 7 3 1 2 2 2 2 4 5 5 5 6 7 8 8 8 9 8 8 8 8 8 8 7 7 6 6 6 6 5 6
12 12 8 3 5 8 12 6 4 5 4 4 4 4 2 1 1 1 1 2 3 4 5 4 5 7 7 7 7 7 7 7 7 7 8 7 6 6 6 6 6 6 6 6
11 13 8 2 6 7 1 1 2 3 3 3 3 3 2 1 0 1 1 3 4 4 4 4 5 6 6 6 6 6 6 7 7 7 6 6 6 6 6 6 6 6 6 6
6 4 3 1 0 1 0 1 1 2 2 3 4 3 2 1 0 1 1 2 3 4 4 4 5 5 6 5 5 5 6 6 6 7 6 6 6 7 6 6 6 6 6 6
4 4 2 1 0 0 0 1 2 3 3 3 4 3 2 1 1 1 1 2 3 3 3 3 4 4 4 4 4 5 6 6 6 6 6 6 5 6 6 6 6 6 6 6
6 4 3 3 1 1 1 2 2 2 3 3 3 3 2 1 1 1 1 1 2 3 3 3 3 3 4 4 4 5 5 5 5 5 5 5 5 4 5 5 4 5 5 5
6 4 4 2 2 2 2 2 3 3 3 3 3 2 2 1 1 1 1 1 2 3 3 3 3 3 4 4 5 5 5 5 5 4 4 5 5 4 2 4 2 4 5 5
5 4 5 5 5 4 4 4 4 4 4 4 3 2 1 1 1 1 2 2 2 3 3 3 3 3 4 4 4 5 5 5 4 4 4 5 5 5 4 4 5 5 6 7
5 5 5 5 4 4 4 4 4 4 4 4 3 2 2 1 1 2 2 2 1 2 2 2 3 3 3 4 4 5 5 5 5 5 5 5 5 5 5 5 4 4 6 8
6 6 5 5 5 4 4 4 4 3 3 3 2 2 2 1 1 2 1 1 1 1 2 2 3 3 3 4 4 5 5 4 4 4 4 5 5 5 4 4 4 4 3 4
5 5 5 5 5 4 4 4 3 3 2 2 2 2 1 1 1 1 1 1 1 1 1 2 2 2 2 3 4 4 4 3 4 4 4 4 4 4 3 4 4 4 4 3
6 6 5 5 5 4 4 3 3 3 2 1 2 2 1 1 0 1 1 1 1 1 1 1 2 2 2 3 3 3 3 3 4 4 3 3 3 3 3 3 4 4 3 2
7 6 6 5 4 4 3 3 3 3 3 2 2 2 2 2 1 1 0 0 0 0 1 1 1 2 2 3 3 3 3 3 3 3 3 2 3 3 3 3 3 3 2 2
5 5 5 5 5 4 3 2 3 3 3 3 3 3 2 2 2 1 1 1 1 1 1 2 1 3 2 2 2 2 2 2 2 2 2 2 3 3 3 3 3 3 3 3
3 3 4 4 4 3 2 2 3 3 3 3 3 3 3 3 2 2 2 2 2 2 1 2 2 2 2 2 2 2 2 2 2 2 2 2 2 2 2 2 3 3 3 3
2 2 3 3 3 2 2 3 3 3 3 3 3 3 2 2 2 2 2 2 1 2 1 1 2 1 1 1 3 2 2 2 2 2 2 2 2 2 2 2 2 2 2 2
3 3 3 3 3 2 2 2 2 3 2 2 2 2 1 2 2 1 1 1 1 2 1 1 1 2 2 2 2 1 1 1 1 1 1 1 1 1 1 2 2 2 2 1
3 3 4 4 3 3 2 2 2 2 2 2 2 2 2 2 2 2 1 1 0 1 1 1 2 2 3 2 0 1 1 1 1 1 1 1 1 1 1 1 1 2 2 1
3 3 3 4 3 2 2 1 1 1 1 2 1 1 2 1 1 1 1 1 1 1 1 3 3 1 2 1 1 1 1 1 1 1 1 1 0 0 1 1 1 1 2 2
3 3 3 3 3 1 1 1 1 1 2 1 1 1 1 1 1 1 1 1 2 0 1 3 2 0 1 1 1 2 2 2 2 2 2 2 1 1 1 2 2 2 2 2
2 2 1 1 1 1 1 1 1 1 1 1 1 1 1 1 1 1 1 1 2 1 1 1 1 1 1 2 2 2 2 3 3 3 3 2 2 2 2 2 3 2 3 2
1 1 1 1 0 1 1 1 1 1 1 0 0 1 1 1 1 1 1 1 1 1 1 1 1 1 2 2 3 3 3 3 3 2 2 2 2 2 3 3 3 3 3 3
Wind_Direction
244 230 218 216 210 211 222 236 244 232 230 211 204 204 184 177 177 174 170 174 177 178 175 177 180 182 185 182 179 178 179 184 187 187 186 189 190 196 202 207 210 207 212 217
228 226 220 221 220 217 221 230 236 237 234 224 203 173 171 176 185 186 187 185 184 183 181 183 183 183 182 180 178 178 182 185 185 185 185 189 193 197 199 204 209 210 215 220
223 215 221 220 217 215 215 222 231 232 231 235 224 201 197 189 199 204 202 197 189 188 190 190 186 183 181 177 176 180 184 186 185 187 189 193 196 197 202 205 206 210 216 219
226 212 225 219 207 215 217 219 231 244 247 238 242 220 212 203 216 224 217 208 196 193 193 191 184 180 179 174 177 182 186 188 188 190 193 194 197 201 206 207 209 212 215 219
227 221 219 203 201 211 217 216 225 237 245 248 238 212 194 204 251 239 233 215 197 194 188 182 180 174 175 178 181 186 190 192 192 192 193 195 199 202 203 206 212 216 215 217
226 230 225 204 192 210 218 215 210 226 237 248 232 232 186 41 301 275 246 208 193 184 175 172 172 171 179 183 187 193 195 196 195 194 197 200 201 204 203 206 214 219 218 219
227 232 228 183 180 198 218 210 196 215 229 239 235 277 330 314 299 277 191 172 170 169 168 167 168 171 183 185 192 195 193 194 196 196 200 201 201 203 205 209 212 221 224 223
223 231 218 142 189 207 207 67 182 219 233 236 242 256 273 287 321 127 127 147 158 159 156 159 168 176 185 191 192 189 188 191 194 198 204 197 198 204 208 211 211 216 222 230
235 237 65 65 209 67 330 249 281 264 259 261 255 259 272 253 135 117 117 140 156 153 151 158 173 184 192 191 189 188 187 191 196 198 202 201 200 203 208 213 221 222 223 227
228 210 217 192 178 304 290 272 278 278 267 256 254 263 264 242 188 171 166 158 163 162 163 168 180 192 196 188 189 192 192 192 194 197 203 205 211 213 218 219 224 228 233 236
226 224 232 219 248 280 319 328 310 298 283 266 259 265 266 254 233 224 214 186 185 190 189 187 182 187 196 188 188 197 201 200 204 209 209 210 219 232 233 234 241 241 242 241
240 223 245 229 260 289 285 305 322 317 300 284 273 266 262 258 264 250 238 219 208 207 206 203 195 195 197 197 197 202 205 208 213 219 216 224 220 225 246 247 239 241 262 268
271 273 279 275 268 283 294 300 299 296 292 288 286 276 259 241 255 254 252 236 224 221 219 212 206 205 205 207 210 216 220 219 222 223 220 226 227 225 229 229 225 228 233 235
259 259 255 256 269 282 285 289 289 292 296 292 286 279 265 244 253 252 252 261 245 229 230 223 217 217 213 215 220 227 230 221 226 224 227 228 227 228 229 234 233 233 222 219
249 252 254 264 271 267 266 271 273 279 288 291 291 286 277 262 265 266 262 261 229 223 224 226 226 230 224 223 226 232 236 233 231 233 230 232 234 234 233 239 247 250 240 202
244 244 244 250 257 263 267 263 263 271 285 294 301 302 293 284 283 274 257 239 226 240 246 236 239 241 236 235 232 234 235 234 231 238 236 230 231 235 233 234 242 252 249 236
237 237 238 245 253 261 270 277 272 269 270 287 303 299 289 269 222 202 233 257 266 264 259 250 257 255 239 228 229 232 225 212 209 225 233 238 242 242 243 241 237 244 251 249
242 248 250 254 259 260 266 268 265 261 267 282 280 278 282 263 235 232 285 2 325 319 318 296 292 259 239 235 235 240 230 222 223 228 223 228 242 241 242 243 244 247 255 218
230 237 246 252 259 264 266 263 267 273 270 266 260 263 269 267 260 262 265 259 264 270 310 312 299 262 253 252 251 233 232 228 228 228 222 208 222 233 238 241 247 251 251 243
226 236 247 252 256 260 263 262 262 263 258 254 258 252 246 245 251 252 254 263 290 324 310 303 271 264 266 250 245 227 220 220 227 231 222 223 227 240 249 251 258 265 261 255
254 251 251 246 246 256 269 272 265 259 258 252 249 243 243 253 256 256 261 272 349 357 320 274 267 270 267 263 233 234 223 220 222 229 235 244 249 257 266 271 274 274 276 276
256 256 260 262 256 262 270 268 265 265 261 256 251 252 245 248 254 256 264 308 1 27 303 281 323 9 349 292 228 225 206 190 192 198 204 228 246 253 264 286 298 299 296 288
271 263 266 274 272 268 267 260 260 260 260 264 253 257 266 281 284 278 279 22 349 355 302 7 22 6 312 279 237 182 178 178 182 175 163 190 234 252 285 308 320 321 321 328
287 278 277 278 269 255 254 265 283 289 285 275 270 280 276 259 254 288 354 98 53 320 19 57 61 0 289 353 53 106 118 110 95 91 103 106 89 40 14 347 355 19 30 25
286 282 278 267 258 240 215 206 224 269 277 284 312 317 284 305 327 5 33 69 82 47 76 93 105 262 312 37 59 73 75 67 62 69 76 62 51 49 37 33 42 48 46 36
283 273 267 275 299 269 239 223 240 271 287 309 344 345 356 23 35 40 70 102 103 95 85 95 112 168 69 71 80 82 87 92 86 77 68 61 51 48 47 47 47 41 46 47
263 251 224 227 224 248 244 227 239 260 276 302 337 340 357 18 46 51 66 102 120 110 88 89 101 105 92 91 89 82 77 77 76 71 73 67 61 58 60 58 56 57 54 59